When you browse on this site, cookies collect data to enhance your experience and personalize the content and advertising you see.
Visit our Privacy Policy to learn more. By continuing to use the site, you agree to this use of cookies and data.
  • In Hungary
  • List of Countries
  • For 7 days
  • Water Temperature
  • Weather Map
  • News
  • Weather Widgets
  • user-avatar
    Login

    Hourly Weather Ludwigsburg

    Today, 12 December, Thursday

    Time Temperature Precipitation Wind Pressure Humidity
    00:00 +2°C° 0.2 mm 3 mps 730 mmHg 92%
    01:00 +3°C° 0 mm 2 mps 730 mmHg 90%
    02:00 +3°C° 0 mm 2 mps 730 mmHg 90%
    03:00 +3°C° 0 mm 2 mps 729 mmHg 89%
    04:00 +4°C° 0 mm 1 mps 729 mmHg 89%
    05:00 +3°C° 0 mm 2 mps 729 mmHg 90%
    06:00 +3°C° 0 mm 2 mps 729 mmHg 91%
    07:00 +3°C° 0 mm 2 mps 729 mmHg 88%
    08:00 +3°C° 0.1 mm 2 mps 729 mmHg 90%
    09:00 +3°C° 0.1 mm 2 mps 729 mmHg 93%
    10:00 +2°C° 0.1 mm 3 mps 729 mmHg 96%
    11:00 +2°C° 0.1 mm 3 mps 729 mmHg 94%
    12:00 +2°C° 0.1 mm 3 mps 729 mmHg 92%
    13:00 +2°C° 0 mm 3 mps 729 mmHg 90%
    14:00 +2°C° 0.1 mm 3 mps 728 mmHg 89%
    15:00 +3°C° 0.1 mm 2 mps 727 mmHg 87%
    16:00 +3°C° 0.1 mm 2 mps 727 mmHg 86%
    17:00 +2°C° 0 mm 2 mps 726 mmHg 86%
    18:00 +1°C° 0 mm 2 mps 726 mmHg 86%
    19:00 +1°C° 0 mm 2 mps 725 mmHg 86%
    20:00 -1°C° 0 mm 2 mps 724 mmHg 86%
    21:00 -1°C° 0 mm 3 mps 723 mmHg 85%
    22:00 -1°C° 0 mm 3 mps 722 mmHg 84%
    23:00 0°C° 0 mm 3 mps 721 mmHg 81%

    Tomorrow, 13 December, Friday

    Time Temperature Precipitation Wind Pressure Humidity
    00:00 0°C° 0 mm 3 mps 720 mmHg 78%
    01:00 -1°C° 0 mm 4 mps 718 mmHg 75%
    02:00 -1°C° 0.2 mm 4 mps 717 mmHg 76%
    03:00 0°C° 0.2 mm 4 mps 716 mmHg 77%
    04:00 0°C° 0.2 mm 5 mps 714 mmHg 78%
    05:00 0°C° 0.2 mm 5 mps 713 mmHg 79%
    06:00 +1°C° 0.2 mm 5 mps 712 mmHg 80%
    07:00 +1°C° 0.2 mm 5 mps 710 mmHg 81%
    08:00 +2°C° 0.8 mm 6 mps 710 mmHg 83%
    09:00 +2°C° 0.8 mm 6 mps 711 mmHg 86%
    10:00 +2°C° 0.8 mm 6 mps 711 mmHg 89%
    11:00 +2°C° 0.4 mm 7 mps 711 mmHg 86%
    12:00 +2°C° 0.4 mm 7 mps 711 mmHg 84%
    13:00 +2°C° 0.4 mm 7 mps 712 mmHg 81%
    14:00 +2°C° 0.5 mm 7 mps 712 mmHg 84%
    15:00 +2°C° 0.5 mm 7 mps 712 mmHg 87%
    16:00 0°C° 0.5 mm 7 mps 713 mmHg 90%
    17:00 0°C° 1.1 mm 8 mps 714 mmHg 92%
    18:00 0°C° 1.1 mm 8 mps 715 mmHg 93%
    19:00 -1°C° 1.1 mm 9 mps 716 mmHg 94%
    20:00 0°C° 1.4 mm 8 mps 717 mmHg 93%
    21:00 0°C° 1.4 mm 8 mps 718 mmHg 91%
    22:00 0°C° 1.4 mm 8 mps 719 mmHg 90%
    23:00 0°C° 0.1 mm 7 mps 720 mmHg 90%

    Day after tomorrow, 14 December, Saturday

    Time Temperature Precipitation Wind Pressure Humidity
    00:00 0°C° 0.1 mm 7 mps 721 mmHg 90%
    01:00 0°C° 0.1 mm 7 mps 722 mmHg 91%
    02:00 +1°C° 0 mm 6 mps 722 mmHg 88%
    03:00 +1°C° 0 mm 5 mps 722 mmHg 85%
    04:00 +1°C° 0 mm 4 mps 722 mmHg 83%
    05:00 +1°C° 0 mm 4 mps 722 mmHg 83%
    06:00 +1°C° 0 mm 5 mps 722 mmHg 84%
    07:00 +1°C° 0 mm 5 mps 722 mmHg 84%
    08:00 +2°C° 0.3 mm 6 mps 722 mmHg 83%
    09:00 +3°C° 0.3 mm 7 mps 722 mmHg 83%
    10:00 +5°C° 0.3 mm 8 mps 723 mmHg 82%
    11:00 +5°C° 0 mm 8 mps 724 mmHg 79%
    12:00 +5°C° 0 mm 8 mps 725 mmHg 75%
    13:00 +5°C° 0 mm 8 mps 726 mmHg 71%
    14:00 +5°C° 0 mm 6 mps 726 mmHg 75%
    15:00 +5°C° 0 mm 5 mps 727 mmHg 79%
    16:00 +5°C° 0 mm 4 mps 727 mmHg 82%
    17:00 +5°C° 0 mm 4 mps 727 mmHg 83%
    18:00 +5°C° 0 mm 4 mps 727 mmHg 83%
    19:00 +5°C° 0 mm 4 mps 727 mmHg 84%
    20:00 +6°C° 0.1 mm 4 mps 728 mmHg 86%
    21:00 +6°C° 0.1 mm 4 mps 728 mmHg 88%
    22:00 +7°C° 0.1 mm 4 mps 728 mmHg 90%
    23:00 +8°C° 0.3 mm 3 mps 728 mmHg 91%

    15 December, Sunday

    Time Temperature Precipitation Wind Pressure Humidity
    00:00 +8°C° 0.3 mm 3 mps 728 mmHg 92%
    01:00 +7°C° 0.3 mm 3 mps 728 mmHg 93%
    02:00 +8°C° 0.1 mm 3 mps 728 mmHg 89%
    03:00 +8°C° 0.1 mm 4 mps 727 mmHg 86%
    04:00 +8°C° 0.1 mm 5 mps 727 mmHg 82%
    05:00 +8°C° 0 mm 5 mps 727 mmHg 81%
    06:00 +8°C° 0 mm 5 mps 728 mmHg 79%
    07:00 +8°C° 0 mm 6 mps 728 mmHg 78%
    08:00 +8°C° 0.4 mm 5 mps 729 mmHg 81%
    09:00 +8°C° 0.4 mm 5 mps 730 mmHg 84%
    10:00 +8°C° 0.4 mm 5 mps 730 mmHg 87%
    11:00 +8°C° 0.5 mm 5 mps 731 mmHg 88%
    12:00 +8°C° 0.5 mm 4 mps 731 mmHg 89%
    13:00 +8°C° 0.5 mm 4 mps 732 mmHg 89%
    14:00 +8°C° 0.4 mm 3 mps 732 mmHg 90%
    15:00 +8°C° 0.4 mm 2 mps 732 mmHg 91%
    16:00 +8°C° 0.4 mm 1 mps 732 mmHg 92%
    17:00 +8°C° 0.1 mm 1 mps 733 mmHg 92%
    18:00 +8°C° 0.1 mm 1 mps 733 mmHg 92%
    19:00 +7°C° 0.1 mm 0 mps 733 mmHg 93%
    20:00 +8°C° 0 mm 1 mps 733 mmHg 92%
    21:00 +8°C° 0 mm 1 mps 734 mmHg 91%
    22:00 +7°C° 0 mm 2 mps 734 mmHg 90%
    23:00 +7°C° 0 mm 2 mps 734 mmHg 89%

    16 December, Monday

    Time Temperature Precipitation Wind Pressure Humidity
    00:00 +7°C° 0 mm 2 mps 734 mmHg 87%
    01:00 +7°C° 0 mm 2 mps 734 mmHg 86%
    02:00 +7°C° 0 mm 2 mps 734 mmHg 85%
    03:00 +7°C° 0 mm 2 mps 734 mmHg 85%
    04:00 +7°C° 0 mm 2 mps 734 mmHg 84%
    05:00 +7°C° 0 mm 2 mps 733 mmHg 83%
    06:00 +6°C° 0 mm 2 mps 733 mmHg 83%
    07:00 +6°C° 0 mm 2 mps 733 mmHg 83%
    08:00 +7°C° 0 mm 2 mps 733 mmHg 80%
    09:00 +7°C° 0 mm 2 mps 733 mmHg 77%
    10:00 +8°C° 0 mm 2 mps 733 mmHg 74%
    11:00 +8°C° 0 mm 2 mps 733 mmHg 72%
    12:00 +10°C° 0 mm 1 mps 733 mmHg 71%
    13:00 +10°C° 0 mm 1 mps 732 mmHg 69%
    14:00 +10°C° 0 mm 1 mps 732 mmHg 71%
    15:00 +9°C° 0 mm 1 mps 732 mmHg 73%
    16:00 +9°C° 0 mm 1 mps 731 mmHg 75%
    17:00 +8°C° 0 mm 1 mps 731 mmHg 77%
    18:00 +8°C° 0 mm 1 mps 731 mmHg 78%
    19:00 +6°C° 0 mm 2 mps 731 mmHg 80%
    20:00 +6°C° 0 mm 2 mps 731 mmHg 79%
    21:00 +6°C° 0 mm 2 mps 731 mmHg 78%
    22:00 +5°C° 0 mm 2 mps 731 mmHg 78%
    23:00 +6°C° 0 mm 1 mps 731 mmHg 78%

    17 December, Tuesday

    Time Temperature Precipitation Wind Pressure Humidity
    00:00 +6°C° 0 mm 1 mps 732 mmHg 79%
    01:00 +6°C° 0 mm 1 mps 732 mmHg 79%
    02:00 +6°C° 0 mm 1 mps 732 mmHg 80%
    03:00 +6°C° 0 mm 1 mps 732 mmHg 81%
    04:00 +6°C° 0 mm 1 mps 732 mmHg 81%
    05:00 +6°C° 0 mm 1 mps 732 mmHg 81%
    06:00 +6°C° 0 mm 1 mps 732 mmHg 81%
    07:00 +6°C° 0 mm 1 mps 732 mmHg 81%
    08:00 +7°C° 0 mm 1 mps 732 mmHg 80%
    09:00 +7°C° 0 mm 1 mps 733 mmHg 79%
    10:00 +8°C° 0 mm 1 mps 733 mmHg 77%
    11:00 +9°C° 0 mm 1 mps 733 mmHg 75%
    12:00 +10°C° 0 mm 1 mps 733 mmHg 73%
    13:00 +11°C° 0 mm 1 mps 733 mmHg 71%
    14:00 +10°C° 0 mm 1 mps 733 mmHg 73%
    15:00 +10°C° 0 mm 1 mps 733 mmHg 75%
    16:00 +9°C° 0 mm 1 mps 733 mmHg 78%
    17:00 +9°C° 0 mm 1 mps 734 mmHg 79%
    18:00 +8°C° 0 mm 2 mps 734 mmHg 80%
    19:00 +7°C° 0 mm 2 mps 735 mmHg 81%
    20:00 +7°C° 0 mm 2 mps 735 mmHg 82%
    21:00 +8°C° 0 mm 2 mps 736 mmHg 83%
    22:00 +8°C° 0 mm 2 mps 737 mmHg 85%
    23:00 +8°C° 0 mm 2 mps 737 mmHg 85%
    Show more